Simultaneous Nadir Overpasses (SNOs) Predictions

Prediction of SNOs between GOES-16 and LANDSAT-8 Satellite Orbit:

Table of predicted SNOs for the next 14.0 days since TLE Epoch: 3/7/2020
Index Date Time (GOES-16) GOES-16 Lat,Lon LANDSAT-8 Lat,Lon Distance(km) Time Diff (sec)
1 03/08/2020 15:02:59 -0.02, -75.19 -0.60, -72.43 313.35 80
2 03/09/2020 03:24:23 0.03, -75.18 -0.51, -77.62 278.73 80
3 03/11/2020 03:09:31 0.02, -75.17 0.13, -74.67 57.21 80
4 03/13/2020 02:57:19 0.02, -75.18 0.77, -71.72 393.58 80
5 03/13/2020 15:18:34 -0.03, -75.19 0.34, -76.87 191.39 80
6 03/15/2020 15:09:02 -0.03, -75.20 -0.30, -73.92 145.39 80
7 03/16/2020 03:30:25 0.04, -75.19 -0.81, -79.11 446.06 80
8 03/17/2020 14:56:50 -0.04, -75.21 -0.94, -70.96 482.64 80
9 03/18/2020 03:18:14 0.04, -75.20 -0.16, -76.16 108.63 80
10 03/20/2020 03:03:22 0.04, -75.22 0.48, -73.20 229.62 80
11 03/20/2020 15:24:36 -0.05, -75.24 0.63, -78.36 355.02 80




NCC Satellite Simultaneous Nadir Overpasses (SNOs) Prediction Service
